Home > Weather > Lódz > Past weeks

Flag for Poland Weather for the Past 2 Weeks in Lódz, Poland

Now
43 °F

Passing clouds.


Feels Like: 43 °F
Forecast: 38 / 60 °F
Wind: 2 mph from East

Location: Lodz

Current Time: May 1, 2016 at 12:39:39 AM

Latest Report: Apr 30, 2016 at 10:00 PM


Visibility: 9 mi

Pressure: 30.19 "Hg

Humidity: 78%

Dew Point: 37 °F

Location of LódzLocation

Historic Weather in Lódz — Graph

°F

Lódz Temperature Yesterday

Maximum temperature yesterday: 56 °F (at 5:00 PM)
Minimum temperature yesterday: 38 °F (at 3:00 AM)
Average temperature yesterday: 48 °F

High & Low Weather Summary for the Past Weeks

 TemperatureHumidityPressure
High64 °F (Apr 17, 1:00 PM)96% (Apr 16, 6:00 AM)30.31 "Hg (Apr 16, 6:00 AM)
Low25 °F (Apr 26, 5:00 AM)24% (Apr 29, 5:00 PM)29.58 "Hg (Apr 26, 5:00 PM)
Average48 °F61%29.94 "Hg
* Reported Apr 15 10:00 PM — Apr 30 10:00 PM, Lódz, Weather by CustomWeather, © 2016

Note: Actual official high and low records may vary slightly from our data, if they occured in-between our weather recording intervals... More about our weather records

Advertising

Lódz Weather History for the Previous 24 Hours

Scroll right to see more
 ConditionsComfort  
Time TempWeatherWind HumidityBarometerVisibility
10:00 PM
Sat, Apr 30
43 °FPassing clouds.2 mph78%30.19 "Hg9 mi
9:00 PM47 °FPassing clouds.2 mph71%30.17 "Hg12 mi
8:00 PM50 °FScattered clouds.5 mph65%30.16 "Hg12 mi
7:00 PM54 °FScattered clouds.6 mph55%30.14 "Hg12 mi
6:00 PM55 °FPartly sunny.5 mph52%30.15 "Hg12 mi
5:00 PM56 °FPartly sunny.5 mph52%30.15 "Hg12 mi
4:00 PM54 °FOvercast.5 mph56%30.15 "Hg12 mi
3:00 PM53 °FLow clouds.6 mph59%30.16 "Hg12 mi
2:00 PM54 °FOvercast.3 mph59%30.17 "Hg12 mi
1:00 PM53 °FOvercast.5 mph62%30.17 "Hg12 mi
12:00 PM52 °FOvercast.6 mph63%30.18 "Hg12 mi
9:00 AM49 °FPartly sunny.5 mph73%30.19 "Hg12 mi
8:00 AM46 °FPassing clouds.3 mph74%30.20 "Hg12 mi
7:00 AM38 °FSunny.1 mph94%30.20 "Hg11 mi
3:00 AM38 °FClear.2 mph79%30.22 "Hg12 mi
2:00 AM40 °FClear.2 mph75%30.22 "Hg12 mi
1:00 AM43 °FClear.2 mph67%30.22 "Hg12 mi
12:00 AM44 °FClear.3 mph61%30.21 "Hg12 mi
Weather by CustomWeather, © 2016

See weather overviewHow to use our weather pages